Regional Weather Roundup
Issued by NWS Newport/Morehead, NC

Current Version | Previous Version | Text Only | Print | Product List | Glossary Off
Versions: 1 2 3 4 5 6 7 8 9 10 11 12 13 14 15 16 17 18 19 20 21 22 23 24 25 26 27 28 29 30 31 32 33 34 35 36 37 38 39 40 41 42 43 44 45 46 47 48 49 50
186 ASUS42 KMHX 281725 RWRMHX WEATHER ROUNDUP FOR EASTERN NORTH CAROLINA NATIONAL WEATHER SERVICE NEWPORT/MOREHEAD CITY NC 1200 PM EST TUE FEB 28 2017 NOTE: "FAIR" INDICATES FEW OR NO CLOUDS BELOW 12,000 FEET WITH NO SIGNIFICANT WEATHER AND/OR OBSTRUCTIONS TO VISIBILITY NCZ015>017-031-032-045>047-102-103-281800- NORTH COAST CITY SKY/WX TMP DP RH WIND PRES REMARKS EDENTON SUNNY 76 60 57 S7 30.28F ELIZABETH CITY SUNNY 74 57 55 S7 30.29F KITTY HAWK NOT AVBL MANTEO MOSUNNY 72 59 63 S13 30.30F $$ NCZ045>047-081-094-103-104-281800- CENTRAL COAST CITY SKY/WX TMP DP RH WIND PRES REMARKS FRISCO SUNNY 74 61 63 SW10 30.32F $$ NCZ095-097-098-100-101-281800- SOUTHERN COAST CITY SKY/WX TMP DP RH WIND PRES REMARKS BEAUFORT SUNNY 74 63 68 S10 30.31F CEDAR ISLAND NOT AVBL JACKSONVILLE NOT AVBL PINEY ISLAND SUNNY N/A N/A N/A S15G22 30.30F WILMINGTON PTSUNNY 73 63 70 S8 30.30F $$ NCZ011>013-027>030-043-044-078>080-089-090>093-098-281800- COASTAL PLAIN CITY SKY/WX TMP DP RH WIND PRES REMARKS AHOSKIE MOSUNNY 73 58 59 S7 30.26F CLINTON PTSUNNY 75 62 64 SE5 30.26F ELIZABETHTOWN PTSUNNY 75 62 62 S6 30.26F GOLDSBORO MOSUNNY 75 64 69 S9 30.24F GREENVILLE PTSUNNY 77 61 57 SW9 30.27F HAVELOCK MOSUNNY 75 62 64 S13 N/A KENANSVILLE PTSUNNY 73 63 68 SE7 30.27F KINSTON PTSUNNY 75 61 60 SE12 30.28F NEW BERN MOSUNNY 77 62 59 S12 30.30F RICHLANDS CLOUDY 74 65 73 S8 30.30F ROCKY MOUNT PTSUNNY 72 61 68 S8 30.27F WASHINGTON MOSUNNY 73 59 61 SE8 30.28F WHITEVILLE PTSUNNY 76 62 62 SW5 30.26F $$ AMZ130-135-150-152-154-156-158-170-250-252-270-ANZ085-086-088-633-658-670-281800- MARINE OBSERVATIONS STATION/POSITION TIME TEMP WIND PRES WAVE SWELL AIR SEA DIR/SP/G HT/PER HT/PER (UTC) (F) (DEG/KT/KT) (MB) (FT/S) (FT/S) CHESAPEAKE LIGHT NOT AVBL 64 E VA BEACH 1650 56 52 200/ 6/ 6 1026.8 4/ 6 3/ 6 DUCK 1700 63 50 150/ 7/ 8 1025.5 2 E DUCK 1700 53 N/A 3/ 6 OREGON INLET 1700 64 57 190/ 7/ 7 1026.5 13E OREGON INLT NOT AVBL HATTERAS CG 1700 71 62 200/ 8/ 12 1026.3 DIAMOND BUOY 1650 71 71 200/ 19/ 21 1026.5 4/ 6 2/11 CAPE LOOKOUT 1700 69 180/ 11/ 14 1026.1 BEAUFORT LAB 1700 67 61 190/ 8/ 10 1025.4 30 SE NEW RVR IN 1708 68 170/ 6/ 10 1026.4 30 SE NEW RVR IN 1713 65 N/A 4/ 6 27 SE WRIGHTSVLE 1708 67 63 160/ 10/ 14 1026.1 5 SE WRIGHTSVLE 1708 63 59 160/ 10/ 14 1026.1 225 S CAPE HAT 1650 70 71 130/ 12/ 14 1029.0 4/ 7 2/ 7 41 SE CHARLESTON 1650 71 69 190/ 8/ 10 1025.2 5/ 7 5/ 7 $$

USA.gov is the U.S. government's official web portal to all federal, state and local government web resources and services.